Location: Bothwell
(42.3833°S, 147.0000°E)
Time: 21:35:07
(UTC+10:00)

Envisat - Pass Details

Date: 27 February 2024
Orbit: 762 x 764 km, 98.3° (Epoch: 22 April)

Event Time Altitude Azimuth Distance (km) Brightness Sun altitude
Exits shadow 03:45:41 56° 185° (S) 921 3.5 -29.6°
Drops below altitude 10° 03:49:43 10° 192° (SSW) 2,333 5.9 -29.1°
Sets 03:52:02 0° 192° (SSW) 3,266 6.7 -28.9°
